[[{"header":{"parameterUnit":"m.s-1","parameterCategory":1,"la1":30.2991,"la2":30.254,"lo1":-89.0895,"lo2":-89.0444,"dy":0.0017,"dx":0.0017,"nx":28,"ny":28,"refTime":"2023-07-31T09:00:00:Z","depth":0,"parameterNumber":2,"parameterNumberName":"U-component_of_WINDS"},"data":[0,0,0,0,0,0,0,0,0,0,0,0,0,0,0,0,0,0,0,0,0,0,0,0,0,0,0,0,0,0,0,0,0,0,0,0,0,0,0,0,0,0,0,0,0,0,0,0,0,0,0,0,0,0,0,0,0,0,-0.259,-0.259,0,-0.2586,-0.2586,-0.2586,-0.2605,-0.2605,-0.2606,-0.2606,-0.2598,-0.2598,-0.2597,0,0,0,0,0,0,0,0,0,0,0,0,0,-0.2612,-0.2611,-0.259,-0.259,-0.259,-0.2586,-0.2586,-0.2586,-0.2605,-0.2605,-0.2606,-0.2606,-0.2598,-0.2598,-0.2597,0,0,0,0,0,0,0,0,0,0,0,0,0,-0.2604,-0.2611,-0.259,-0.2599,-0.26,-0.2586,-0.2586,-0.2586,-0.2604,-0.2605,-0.2606,-0.2607,-0.2599,-0.2598,-0.2597,-0.2574,0,0,-0.2593,-0.2593,0,0,0,0,0,0,0,0,-0.2605,-0.2604,-0.2598,-0.2598,-0.2599,-0.2597,-0.2591,-0.2582,-0.2604,-0.2603,-0.2606,-0.2607,-0.2597,-0.2596,-0.2593,-0.2573,-0.2573,-0.2593,-0.2593,-0.2592,-0.2592,0,0,0,0,0,0,0,-0.2605,-0.2604,-0.2589,-0.2598,-0.2599,-0.2602,-0.2602,-0.2589,-0.2595,-0.2603,-0.2604,-0.2604,-0.2597,-0.2594,-0.2593,-0.2573,-0.2593,-0.2592,-0.2592,-0.2591,-0.2533,-0.2533,0,0,0,0,0,0,-0.2605,-0.2604,-0.2589,-0.2589,-0.2604,-0.2601,-0.2601,-0.2597,-0.2595,-0.2596,-0.2603,-0.2604,-0.2596,-0.2595,-0.2593,-0.2565,-0.2592,-0.2591,-0.259,-0.2534,-0.2533,-0.2532,0,0,0,0,0,0,-0.2605,-0.2604,-0.2589,-0.2597,-0.2595,-0.26,-0.2595,-0.2596,-0.2593,-0.2595,-0.2596,-0.2599,-0.2596,-0.2595,-0.2579,-0.2565,-0.2591,-0.259,-0.2535,-0.2534,-0.2533,-0.2509,0,0,0,0,0,0,-0.2606,-0.2604,-0.2595,-0.2597,-0.2595,-0.2575,-0.2594,-0.2596,-0.2592,-0.2594,-0.2592,-0.2592,-0.2597,-0.258,-0.2577,-0.2564,-0.2589,-0.2537,-0.2535,-0.2533,-0.2511,-0.2507,-0.2504,0,0,0,0,0,-0.2607,-0.2588,-0.2595,-0.2593,-0.2585,-0.2574,-0.2573,-0.258,-0.2591,-0.2582,-0.2584,-0.2592,-0.2568,-0.2578,-0.2575,-0.2561,-0.2537,-0.2535,-0.2533,-0.2513,-0.2508,-0.2504,0,0,0,0,0,0,-0.2583,-0.2588,-0.2596,-0.2577,-0.2575,-0.2577,-0.2566,-0.2575,-0.2569,-0.2571,-0.2579,-0.2578,-0.256,-0.256,-0.2571,-0.2539,-0.2554,-0.2552,-0.254,-0.2535,-0.2532,-0.2531,-0.2588,0,0,0,0,0,-0.2576,-0.2568,-0.2573,-0.2556,-0.2555,-0.2561,-0.2557,-0.2563,-0.256,-0.2559,-0.256,-0.2556,-0.2548,-0.2542,-0.2535,-0.2513,-0.2512,-0.2502,-0.2498,-0.2495,-0.2492,-0.2479,-0.2475,-0.2526,-0.2526,-0.2526,0,0,-0.256,-0.2562,-0.2556,-0.2551,-0.2551,-0.2541,-0.256,-0.2549,-0.2542,-0.2557,-0.2542,-0.2543,-0.254,-0.252,-0.2512,-0.2519,-0.2478,-0.2493,-0.249,-0.2488,-0.2477,-0.2472,-0.2468,-0.2524,-0.2525,-0.2525,0,0,-0.2527,-0.2528,-0.2514,-0.2514,-0.2513,-0.2518,-0.2515,-0.2516,-0.2517,-0.2503,-0.2514,-0.2506,-0.2491,-0.2489,-0.2485,-0.2454,-0.2461,-0.2451,-0.2431,-0.2419,-0.2415,-0.2411,-0.2398,-0.2393,-0.2448,-0.2448,-0.2448,0,-0.2507,-0.2494,-0.2505,-0.2494,-0.2491,-0.2507,-0.2492,-0.2491,-0.2487,-0.2484,-0.2494,-0.2477,-0.2476,-0.2456,-0.2448,-0.2446,-0.2441,-0.245,-0.2415,-0.2411,-0.2408,-0.2395,-0.2391,-0.2447,-0.2447,-0.2447,-0.2447,0,-0.2469,-0.246,-0.2449,-0.2446,-0.2443,-0.243,-0.2438,-0.2433,-0.244,-0.2443,-0.2428,-0.2429,-0.2421,-0.2418,-0.2424,-0.2399,-0.2403,-0.2414,-0.2428,-0.2401,-0.239,-0.2385,-0.2445,-0.2446,-0.2446,-0.2446,0,0,-0.2416,-0.2423,-0.2418,-0.2417,-0.2419,-0.2412,-0.2401,-0.2395,-0.2389,-0.2388,-0.2376,-0.2365,-0.2376,-0.2372,-0.2378,-0.2368,-0.2341,-0.238,-0.238,-0.2371,-0.2312,-0.2302,-0.2296,-0.2348,-0.2347,-0.2346,-0.2311,0,-0.2382,-0.2362,-0.2373,-0.2351,-0.2342,-0.2359,-0.2349,-0.2348,-0.2352,-0.2345,-0.2349,-0.234,-0.2355,-0.2353,-0.2344,-0.2346,-0.2329,-0.235,-0.2335,-0.2335,-0.2332,-0.229,-0.2279,-0.2246,-0.2307,-0.2306,-0.2306,0,-0.2337,-0.2335,-0.2313,-0.2317,-0.2314,-0.2305,-0.2301,-0.2295,-0.2295,-0.2298,-0.2296,-0.2305,-0.2293,-0.231,-0.2293,-0.2307,-0.2302,-0.2303,-0.2302,-0.2298,-0.2316,-0.2282,-0.2235,-0.2229,-0.2299,-0.23,-0.23,0,-0.2298,-0.229,-0.2276,-0.2275,-0.228,-0.2273,-0.2275,-0.2276,-0.2272,-0.2269,-0.2267,-0.2262,-0.2258,-0.2254,-0.2262,-0.2274,-0.2243,-0.2261,-0.2244,-0.2243,-0.2233,-0.2233,-0.2181,-0.2235,-0.2235,-0.2236,-0.2236,0,-0.2256,-0.2241,-0.2258,-0.2248,-0.2233,-0.2246,-0.223,-0.2233,-0.2235,-0.2226,-0.2241,-0.2232,-0.2244,-0.2236,-0.2243,-0.2227,-0.2226,-0.2227,-0.2228,-0.2223,-0.2223,-0.2218,-0.2219,-0.2234,-0.2235,-0.2235,-0.2235,0,-0.2207,-0.2219,-0.2204,-0.2211,-0.2213,-0.2201,-0.2207,-0.2198,-0.2205,-0.2193,-0.2191,-0.22,-0.2192,-0.2201,-0.2193,-0.2197,-0.2174,-0.2181,-0.2174,-0.2175,-0.2156,-0.2156,-0.2096,-0.2089,-0.2151,-0.215,-0.215,0,-0.2178,-0.2167,-0.2175,-0.2171,-0.2172,-0.2165,-0.2162,-0.2176,-0.2172,-0.2173,-0.2164,-0.2158,-0.2152,-0.2139,-0.2144,-0.2138,-0.2142,-0.2122,-0.2141,-0.2137,-0.2138,-0.2138,-0.2136,-0.2116,-0.2116,-0.2115,-0.2115,0,-0.2124,-0.2131,-0.2126,-0.2124,-0.212,-0.2119,-0.2119,-0.2114,-0.2129,-0.2124,-0.2117,-0.2113,-0.2107,-0.2099,-0.2095,-0.2096,-0.2107,-0.211,-0.2105,-0.2098,-0.2093,-0.2093,-0.216,-0.211,-0.211,-0.211,-0.2111,-0.2111,-0.2082,-0.2073,-0.2077,-0.2072,-0.2074,-0.2074,-0.2066,-0.2073,-0.2067,-0.2063,-0.2073,-0.2063,-0.2065,-0.2061,-0.2061,-0.2053,-0.2061,-0.2055,-0.2053,-0.205,-0.2046,-0.2098,-0.2053,-0.2053,-0.2053,-0.2053,-0.2054,0,-0.2026,-0.203,-0.2026,-0.2026,-0.2022,-0.2036,-0.2037,-0.2032,-0.2024,-0.2026,-0.2022,-0.2013,-0.2007,-0.2014,-0.2009,-0.2001,-0.2006,-0.1999,-0.1997,-0.1997,-0.204,-0.2044,-0.1995,-0.1995,-0.1995,-0.1995,-0.1995,-0.1995,-0.1996,-0.1981,-0.1989,-0.1975,-0.198,-0.1972,-0.1971,-0.1971,-0.1972,-0.1963,-0.1959,-0.1964,-0.1967,-0.1963,-0.1958,-0.196,-0.1956,-0.1946,-0.195,-0.1989,-0.1994,-0.1999,-0.2003,-0.1946,-0.1946,-0.1907,-0.1907,-0.1906]},{"header":{"parameterUnit":"m.s-1","parameterCategory":1,"la1":30.2991,"la2":30.254,"lo1":-89.0895,"lo2":-89.0444,"dy":0.0017,"dx":0.0017,"nx":28,"ny":28,"refTime":"2023-07-31T09:00:00:Z","depth":0,"parameterNumber":3,"parameterNumberName":"V-component_of_WINDS"},"data":[0,0,0,0,0,0,0,0,0,0,0,0,0,0,0,0,0,0,0,0,0,0,0,0,0,0,0,0,0,0,0,0,0,0,0,0,0,0,0,0,0,0,0,0,0,0,0,0,0,0,0,0,0,0,0,0,0,0,-1.9954,-1.9956,0,-2.0077,-2.0079,-2.008,-2.011,-2.0109,-2.0109,-2.0108,-2.0234,-2.0238,-2.0242,0,0,0,0,0,0,0,0,0,0,0,0,0,-1.9746,-1.975,-1.9954,-1.9956,-1.9957,-2.0077,-2.0079,-2.008,-2.011,-2.0109,-2.0108,-2.0107,-2.0232,-2.0237,-2.0242,0,0,0,0,0,0,0,0,0,0,0,0,0,-1.985,-1.9751,-1.9954,-1.9987,-1.9991,-2.0077,-2.0079,-2.0081,-2.0111,-2.0109,-2.0108,-2.0107,-2.0231,-2.0237,-2.0243,-2.0305,0,0,-2.0262,-2.0264,0,0,0,0,0,0,0,0,-1.9844,-1.9857,-1.998,-1.9985,-1.9989,-2.0077,-2.0052,-2.0156,-2.0111,-2.0065,-2.0108,-2.0106,-2.0183,-2.0193,-2.0218,-2.0311,-2.0316,-2.0262,-2.0266,-2.0269,-2.027,0,0,0,0,0,0,0,-1.9837,-1.9852,-2.0003,-1.9982,-1.9988,-1.9995,-2.0009,-2.0072,-2.0129,-2.0069,-2.0071,-2.0086,-2.0185,-2.0212,-2.0222,-2.0318,-2.0262,-2.0268,-2.0271,-2.0274,-2.0468,-2.0469,0,0,0,0,0,0,-1.9824,-1.9846,-1.9999,-2.0007,-1.9912,-2.0,-2.0015,-2.005,-2.0129,-2.0139,-2.0086,-2.0087,-2.0202,-2.0214,-2.0226,-2.0304,-2.0269,-2.0274,-2.0278,-2.0467,-2.0468,-2.047,0,0,0,0,0,0,-1.9819,-1.9837,-1.9994,-1.9927,-1.9948,-2.0005,-2.0044,-2.0053,-2.0081,-2.0142,-2.0152,-2.0104,-2.0202,-2.0217,-2.0285,-2.0309,-2.0277,-2.0283,-2.0465,-2.0467,-2.0469,-2.046,0,0,0,0,0,0,-1.9813,-1.9835,-1.9859,-1.9927,-1.9951,-2.0051,-2.0046,-2.0056,-2.0091,-2.0092,-2.0161,-2.0171,-2.0202,-2.0276,-2.0291,-2.0317,-2.0288,-2.0463,-2.0466,-2.0469,-2.0458,-2.0462,-2.0464,0,0,0,0,0,-1.9805,-1.9852,-1.986,-1.9878,-1.9982,-2.0052,-2.0066,-2.0101,-2.0093,-2.0118,-2.0157,-2.0169,-2.0304,-2.0283,-2.03,-2.0328,-2.0462,-2.0465,-2.0468,-2.0457,-2.0461,-2.0464,0,0,0,0,0,0,-1.9785,-1.9861,-1.9871,-1.9941,-1.999,-2.0057,-2.0089,-2.0103,-2.0155,-2.0154,-2.0196,-2.0211,-2.0276,-2.0309,-2.0284,-2.0392,-2.0383,-2.039,-2.0368,-2.0372,-2.0375,-2.0366,-2.0293,0,0,0,0,0,-1.9788,-1.9838,-1.9903,-1.9958,-1.9982,-2.0031,-2.0063,-2.0086,-2.0138,-2.0159,-2.0203,-2.0253,-2.0307,-2.0342,-2.0395,-2.0464,-2.0479,-2.0491,-2.0494,-2.0496,-2.0502,-2.0541,-2.0547,-2.0481,-2.0481,-2.0481,0,0,-1.9796,-1.9844,-1.9873,-1.9955,-1.9995,-2.0047,-2.0048,-2.0102,-2.0141,-2.0167,-2.0234,-2.0268,-2.0327,-2.0395,-2.0428,-2.0425,-2.0524,-2.0501,-2.0502,-2.0506,-2.0545,-2.0551,-2.0557,-2.0483,-2.0483,-2.0482,0,0,-1.9836,-1.9877,-1.9928,-1.9969,-2.003,-2.0063,-2.0075,-2.014,-2.0164,-2.0231,-2.0252,-2.0299,-2.039,-2.0432,-2.0465,-2.0521,-2.0534,-2.0537,-2.0552,-2.059,-2.0595,-2.06,-2.062,-2.0627,-2.0542,-2.0542,-2.0542,0,-1.9838,-1.9916,-1.9952,-2.0006,-2.0041,-2.0067,-2.0119,-2.0157,-2.0232,-2.0256,-2.0251,-2.0367,-2.0409,-2.0488,-2.0501,-2.0527,-2.0542,-2.0529,-2.0591,-2.0597,-2.0602,-2.0621,-2.0629,-2.0542,-2.0542,-2.0542,-2.0542,0,-1.9915,-1.9969,-2.0002,-2.0074,-2.0114,-2.0166,-2.0211,-2.0246,-2.0266,-2.0299,-2.0367,-2.0418,-2.0482,-2.0502,-2.0522,-2.0584,-2.058,-2.0583,-2.0574,-2.0607,-2.0626,-2.0634,-2.0542,-2.0542,-2.0542,-2.0542,0,0,-1.9945,-2.0037,-2.0049,-2.0082,-2.0152,-2.0194,-2.0247,-2.031,-2.0339,-2.0391,-2.0437,-2.0514,-2.0517,-2.0555,-2.0579,-2.0612,-2.0654,-2.0611,-2.0613,-2.0617,-2.0725,-2.0722,-2.073,-2.0663,-2.0664,-2.0666,-2.072,0,-1.9994,-2.009,-2.0124,-2.0204,-2.0254,-2.028,-2.0327,-2.0374,-2.0407,-2.0455,-2.0491,-2.0545,-2.0545,-2.0568,-2.0602,-2.0641,-2.0676,-2.0638,-2.0706,-2.0708,-2.069,-2.074,-2.0737,-2.0786,-2.0728,-2.0729,-2.073,0,-2.0063,-2.0115,-2.0199,-2.0263,-2.0285,-2.0327,-2.0387,-2.0432,-2.0487,-2.0509,-2.055,-2.0573,-2.063,-2.0618,-2.0698,-2.0671,-2.0701,-2.0725,-2.0728,-2.0735,-2.072,-2.0748,-2.0803,-2.081,-2.0742,-2.0741,-2.074,0,-2.0076,-2.0167,-2.023,-2.0257,-2.0333,-2.0362,-2.0395,-2.0449,-2.0484,-2.0537,-2.056,-2.0619,-2.0651,-2.0696,-2.0733,-2.0721,-2.0809,-2.0801,-2.0829,-2.0828,-2.0846,-2.0844,-2.0905,-2.0866,-2.0866,-2.0865,-2.0865,0,-2.0126,-2.0177,-2.0236,-2.0275,-2.0332,-2.0372,-2.0427,-2.0462,-2.051,-2.0556,-2.0582,-2.0624,-2.0672,-2.072,-2.075,-2.0811,-2.0826,-2.0845,-2.0852,-2.0842,-2.084,-2.0862,-2.0859,-2.0867,-2.0867,-2.0867,-2.0866,0,-2.015,-2.0192,-2.0262,-2.0328,-2.0346,-2.0386,-2.0443,-2.0481,-2.0515,-2.0572,-2.0588,-2.0641,-2.07,-2.0742,-2.0818,-2.0838,-2.0903,-2.0911,-2.0884,-2.0888,-2.0914,-2.091,-2.0991,-2.1003,-2.0956,-2.0956,-2.0956,0,-2.018,-2.0219,-2.029,-2.0322,-2.0355,-2.0407,-2.0443,-2.0484,-2.052,-2.0586,-2.0617,-2.0677,-2.0727,-2.082,-2.0865,-2.0923,-2.0932,-2.0956,-2.0941,-2.093,-2.0932,-2.0929,-2.0933,-2.0958,-2.0958,-2.0959,-2.0959,0,-2.0227,-2.0246,-2.0297,-2.0355,-2.0398,-2.0446,-2.0494,-2.0519,-2.0569,-2.0609,-2.0669,-2.0708,-2.0785,-2.0845,-2.0907,-2.0941,-2.0958,-2.0963,-2.0973,-2.0963,-2.0946,-2.0955,-2.089,-2.0961,-2.0961,-2.0961,-2.0961,-2.0961,-2.0254,-2.0291,-2.0346,-2.0402,-2.0443,-2.0487,-2.0527,-2.0566,-2.0616,-2.0682,-2.0703,-2.0765,-2.082,-2.0906,-2.0941,-2.099,-2.0989,-2.1003,-2.1007,-2.1009,-2.1009,-2.0938,-2.1002,-2.1002,-2.1002,-2.1002,-2.1002,0,-2.0303,-2.034,-2.0391,-2.0458,-2.0502,-2.0514,-2.0569,-2.0605,-2.0659,-2.0709,-2.0758,-2.0827,-2.0885,-2.0935,-2.0995,-2.1025,-2.1034,-2.1039,-2.1037,-2.1045,-2.1006,-2.0992,-2.1031,-2.1031,-2.1031,-2.1031,-2.1031,-2.1031,-2.0333,-2.0395,-2.042,-2.0503,-2.054,-2.0601,-2.0631,-2.0672,-2.0712,-2.0788,-2.0836,-2.0868,-2.0918,-2.0983,-2.1036,-2.105,-2.107,-2.1074,-2.1089,-2.1051,-2.1048,-2.1045,-2.1031,-2.1078,-2.1078,-2.1124,-2.1124,-2.1124]}]]